Spokane, WA

6:36 AM PST on November 20, 2017 (GMT -0800)
Spokane International

Weather History for KGEG - October, 2012

Change the Weather History Date:

Sunday, October 14, 2012

  Actual Average Record
Temperature  
Mean Temperature 58 °F 48 °F  
Max Temperature 66 °F 59 °F 78 °F (1929)
Min Temperature 50 °F 38 °F 18 °F (1881)
Degree Days  
Heating Degree Days 7 17  
Month to date heating degree days 170 195  
Since 1 July heating degree days 272 443  
Cooling Degree Days 0 0  
Month to date cooling degree days 0 0  
Year to date cooling degree days 535 449  
Growing Degree Days 8 (Base 50)    
Moisture  
Dew Point 48 °F    
Average Humidity 68    
Maximum Humidity 93    
Minimum Humidity 42    
Precipitation  
Precipitation 0.03 in 0.04 in 0.76 in (1908)
Month to date precipitation 0.06 0.38  
Year to date precipitation 14.02 11.16  
Snow  
Snow 0.00 in 0.00 in T in (1994)
Month to date snowfall 0.0 0.0  
Since 1 July snowfall 0.0 0.0  
Since 1 September snowfall 0.0 0.0  
Snow Depth 0.00 in    
Sea Level Pressure  
Sea Level Pressure 30.03 in    
Wind  
Wind Speed 14 mph (South)    
Max Wind Speed 25 mph    
Max Gust Speed 33 mph    
Visibility 10 miles    
Events Rain    
T = Trace of Precipitation, MM = Missing Value Source: NWS Daily Summary

Daily Weather History Graph

Daily Weather History Graph

Search for Another Location

Airport or City:

Trip Planner

Search our weather history database for the weather conditions in past years. The results will help you decide how hot, cold, wet, or windy it might be!

Date:

Astronomy

Oct. 14, 2012 Rise Set
Actual Time 7:08 AM PDT 6:02 PM PDT
Civil Twilight 6:37 AM PDT 6:33 PM PDT
Nautical Twilight 6:01 AM PDT 7:09 PM PDT
Astronomical Twilight 5:25 AM PDT 7:45 PM PDT
Moon 6:12 AM PDT (10/14) 5:24 PM PDT (10/14)
Length of Visible Light 11h 56m
Length of Day
10h 54m
Waning Crescent, 1% of the Moon is Illuminated
Oct 14
Waning Crescent
Oct 15
New
Oct 21
First Quarter
Oct 29
Full
Nov 6
Last Quarter

Hourly Weather History & Observations

Time (PDT) Temp. Dew Point Humidity Pressure Visibility Wind Dir Wind Speed Gust Speed Precip Events Conditions
12:53 AM 52.0 °F 48.9 °F 89% 30.17 in 10.0 mi South 11.5 mph - N/A   Overcast
1:53 AM 52.0 °F 48.9 °F 89% 30.16 in 10.0 mi South 8.1 mph - N/A   Mostly Cloudy
2:53 AM 51.1 °F 48.9 °F 92% 30.14 in 10.0 mi South 9.2 mph - N/A   Mostly Cloudy
3:53 AM 50.0 °F 48.0 °F 93% 30.12 in 10.0 mi South 10.4 mph - N/A   Overcast
4:53 AM 51.1 °F 48.0 °F 89% 30.12 in 10.0 mi South 8.1 mph - N/A   Overcast
5:53 AM 51.1 °F 48.0 °F 89% 30.12 in 10.0 mi South 6.9 mph - 0.00 in Rain Light Rain
6:53 AM 51.1 °F 46.9 °F 86% 30.10 in 10.0 mi South 10.4 mph - 0.00 in   Overcast
7:53 AM 53.1 °F 46.9 °F 80% 30.09 in 10.0 mi South 5.8 mph - N/A   Mostly Cloudy
8:53 AM 54.0 °F 48.0 °F 80% 30.07 in 10.0 mi South 9.2 mph - 0.00 in Rain Light Rain
9:53 AM 57.9 °F 46.9 °F 67% 30.05 in 10.0 mi SSW 16.1 mph 24.2 mph N/A   Mostly Cloudy
10:53 AM 59.0 °F 46.0 °F 62% 30.03 in 10.0 mi South 18.4 mph 25.3 mph N/A   Overcast
11:53 AM 60.1 °F 45.0 °F 57% 30.02 in 10.0 mi South 17.3 mph 24.2 mph N/A   Overcast
12:53 PM 62.6 °F 44.6 °F 52% 30.02 in 10.0 mi SSW 15.0 mph - N/A   Overcast
1:53 PM 64.0 °F 46.0 °F 52% 30.00 in 10.0 mi SSW 16.1 mph 24.2 mph N/A   Overcast
2:53 PM 66.0 °F 43.0 °F 43% 29.98 in 10.0 mi SW 19.6 mph - N/A   Overcast
3:53 PM 64.0 °F 43.0 °F 46% 29.97 in 10.0 mi SSW 20.7 mph - N/A   Overcast
4:53 PM 63.0 °F 45.0 °F 52% 29.98 in 10.0 mi SW 16.1 mph - N/A   Overcast
5:53 PM 60.1 °F 48.9 °F 67% 29.98 in 10.0 mi SSW 12.7 mph - 0.00 in Rain Light Rain
6:53 PM 57.9 °F 50.0 °F 75% 29.97 in 10.0 mi SSW 11.5 mph - 0.00 in Rain Light Rain
7:53 PM 57.0 °F 50.0 °F 77% 29.96 in 10.0 mi South 11.5 mph - 0.00 in   Overcast
8:53 PM 55.9 °F 50.0 °F 80% 29.94 in 10.0 mi South 13.8 mph - 0.00 in Rain Light Rain
9:53 PM 55.0 °F 50.0 °F 83% 29.93 in 10.0 mi SSW 18.4 mph - 0.01 in Rain Light Rain
10:53 PM 54.0 °F 52.0 °F 93% 29.91 in 10.0 mi SSW 10.4 mph - 0.02 in   Overcast
11:53 PM 54.0 °F 51.1 °F 90% 29.90 in 10.0 mi SSW 16.1 mph - N/A   Overcast